Hourly Data Report for September 26, 2017

All times are specified in Local Standard Time (LST). Add 1 hour to adjust for Daylight Saving Time where and when it is observed.

BAS CARAQUET
NEW BRUNSWICK

47°48'08.000" N
64°50'00.000" W
5.00 m
8100467
71598
WXS

Download Data

Hourly Data (September 2017)
Hourly Data Report for September 26, 2017
Temp Definition
°C
Dew Point Temp Definition
°C
Rel Hum Definition
%
Wind Dir Definition
10's deg

Wind Spd Definition
km/h
Visibility Definition
km
Stn Press Definition
kPa
Hmdx Definition


Wind Chill Definition


Weather Definition


TIME
00:00 15.5 15.1 97 27 9   100.95     LegendNANA
01:00 15.0 14.5 97 26 7   100.94     LegendNANA
02:00 15.0 14.5 97 25 5   100.89     LegendNANA
03:00 14.6 14.4 99 24 4   100.85     LegendNANA
04:00 15.7 15.6 99 24 4   100.82     LegendNANA
05:00 16.4 16.2 99 26 7   100.84     LegendNANA
06:00 16.9 16.6 98 24 8   100.86     LegendNANA
07:00 18.8 18.1 96 26 9   100.91     LegendNANA
08:00 21.9 18.7 82 24 15   100.90 28   LegendNANA
09:00 24.7 18.8 69 25 15   100.94 31   LegendNANA
10:00 25.5 18.4 65 27 15   100.97 32   LegendNANA
11:00 25.1 17.5 62 27 15   101.03 31   LegendNANA
12:00 25.8 18.3 63 29 16   101.08 32   LegendNANA
13:00 20.7 13.5 63 6 17   101.17     LegendNANA
14:00 18.7 12.5 68 6 13   101.26     LegendNANA
15:00 18.4 12.2 67 6 18   101.37     LegendNANA
16:00 15.7 10.3 70 6 14   101.46     LegendNANA
17:00 14.1 9.1 72 7 14   101.56     LegendNANA
18:00 13.0 8.5 74 7 17   101.66     LegendNANA
19:00 13.0 7.0 67 6 25   101.77     LegendNANA
20:00 12.8 7.2 69 6 17   101.88     LegendNANA
21:00 12.8 7.7 71 6 16   101.92     LegendNANA
22:00 12.4 8.0 75 7 8   101.91     LegendNANA
23:00 12.0 8.3 78 10 5   101.91     LegendNANA

Notes on Data Quality.

Legend

  • E = Estimated
  • M = Missing
  • NA = Not Available
  • ‡ = Partner data that is not subject to review by the National Climate Archives
Date modified: